Terminal Aerodrome Forecast
Issued by NWS Billings, MT

Home | Current Version | Previous Version | Text Only | Print | Product List | Glossary On
Versions: 1 2 3 4 5 6 7 8 9 10 11 12 13 14 15 16 17 18 19
000
FTUS45 KBYZ 101132
TAFBIL
TAF
KBIL 101132Z 1012/1112 VRB06KT 6SM -SN BR FEW025 OVC050
      TEMPO 1012/1014 3SM -SN BR BKN025
     FM102100 VRB06KT 5SM -SN BR BKN025
     FM110200 32008KT P6SM BKN060=

USA.gov is the U.S. government's official web portal to all federal, state and local government web resources and services.